Date String (YYYY-MM-DD hh:mm:ss) UTC,Instrument flags,absolute air pressure of the measurement (hPa),sample flow rate (lpm),inlet stack bypass flow (lpm),air temperature of the measurement (°C),ambient temperature measured by the external sensor (°C),aerosol sample conditioner tube jacket temperature (°C),OPC LED temperature (°C),internal box temperature (°C),relative humidity of the measurement (%),span deviation,mass concentration of particles derived from Lorenz-Mie calculation of OPC scattering (μg/m³),mass concentration of particles derived from Lorenz-Mie calculation of OPC scattering (μg/m³),mass concentration of particles derived from Lorenz-Mie calculation of OPC scattering (μg/m³)
DateTimeUTC,F1_M11,P_M11,Q1_M11,Q2_M11,T1_M11,T2_M11,T3_M11,T4_M11,T5_M11,U1_M11,ZSPAN_M11,X0_M11,X2_M11,X1_M11
2023-06-30 03:00:00,SystemResetWarning,0831.2,4.99,000.00,029.1,026.8,000.0,037.7,030.6,31.4,0000.0,0011.39,0005.35,0004.12
2023-06-30 03:01:00,SystemResetWarning,0831.3,5.01,000.00,029.1,027.1,000.0,037.7,030.7,31.5,0000.0,0011.23,0005.36,0004.13
2023-06-30 03:02:00,SystemResetWarning,0831.3,4.99,000.00,029.2,027.3,000.0,037.7,030.7,31.6,0000.0,0011.38,0005.39,0004.15
2023-06-30 03:03:00,SystemResetWarning,0831.3,5.00,000.00,029.2,027.5,000.0,037.8,030.8,31.7,0000.0,0011.43,0005.44,0004.16
2023-06-30 03:04:00,SystemResetWarning,0831.3,5.01,000.00,029.2,027.6,000.0,037.8,030.8,31.6,0000.0,0011.50,0005.47,0004.18
2023-06-30 03:05:00,SystemResetWarning,0831.3,5.01,000.00,029.2,027.8,000.0,037.8,030.9,31.7,0000.0,0010.95,0005.46,0004.18
2023-06-30 03:06:00,SystemResetWarning,0831.4,4.99,000.00,029.3,027.9,000.0,037.8,030.9,31.7,0000.0,0011.16,0005.51,0004.19
2023-06-30 03:07:00,SystemResetWarning,0831.5,4.99,000.00,029.3,028.0,000.0,037.8,030.9,31.7,0000.0,0011.34,0005.55,0004.19
2023-06-30 03:08:00,SystemResetWarning,0831.5,4.99,000.00,029.3,028.1,000.0,037.8,031.0,31.7,0000.0,0011.49,0005.57,0004.18
2023-06-30 03:09:00,SystemResetWarning,0831.6,5.00,000.00,029.3,028.2,000.0,037.8,031.0,31.7,0000.0,0011.38,0005.53,0004.19
2023-06-30 03:10:00,SystemResetWarning,0831.6,5.01,000.00,029.4,028.2,000.0,037.9,031.0,31.7,0000.0,0011.33,0005.57,0004.19
2023-06-30 03:11:00,SystemResetWarning,0832.0,5.00,000.00,029.4,028.3,000.0,037.9,031.1,31.8,0000.0,0011.34,0005.53,0004.18
2023-06-30 03:12:00,SystemResetWarning,0831.9,5.00,000.00,029.4,028.4,000.0,037.9,031.1,31.8,0000.0,0011.40,0005.52,0004.19
2023-06-30 03:13:00,SystemResetWarning,0832.0,5.00,000.00,029.5,028.4,000.0,037.9,031.2,31.8,0000.0,0011.82,0005.52,0004.20
2023-06-30 03:14:00,SystemResetWarning,0832.0,5.00,000.00,029.5,028.5,000.0,037.9,031.2,31.7,0000.0,0012.35,0005.47,0004.20
2023-06-30 03:15:00,SystemResetWarning,0832.0,4.98,000.00,029.5,027.7,000.0,037.9,031.1,31.7,0000.5,0012.82,0005.47,0004.20
2023-06-30 03:16:00,SystemResetWarning,0832.1,5.01,000.00,029.5,025.9,000.0,037.8,030.9,31.9,0000.6,0012.48,0005.52,0004.22
2023-06-30 03:17:00,SystemResetWarning,0832.2,5.01,000.00,029.4,025.2,000.0,037.7,030.7,32.0,-000.0,0012.41,0005.53,0004.23
2023-06-30 03:18:00,SystemResetWarning,0832.2,5.01,000.00,029.3,025.4,000.0,037.7,030.4,32.3,-001.0,0012.25,0005.51,0004.24
2023-06-30 03:19:00,SystemResetWarning,0832.3,5.00,000.00,029.2,025.8,000.0,037.7,030.4,32.5,-001.6,0012.05,0005.51,0004.25
2023-06-30 03:20:00,SystemResetWarning,0832.5,5.00,000.00,029.2,026.2,000.0,037.8,030.5,32.6,-001.9,0012.31,0005.52,0004.24
2023-06-30 03:21:00,SystemResetWarning,0832.5,5.01,000.00,029.2,026.6,000.0,037.8,030.6,32.7,-002.3,0012.60,0005.53,0004.24
2023-06-30 03:22:00,SystemResetWarning,0832.6,4.99,000.00,029.2,026.9,000.0,037.8,030.7,32.8,-002.1,0012.56,0005.51,0004.25
2023-06-30 03:23:00,SystemResetWarning,0832.6,5.00,000.00,029.2,027.2,000.0,037.8,030.7,32.9,-000.8,0012.58,0005.57,0004.26
2023-06-30 03:24:00,SystemResetWarning,0832.7,5.00,000.00,029.2,027.4,000.0,037.8,030.8,32.8,0000.0,0012.29,0005.57,0004.26
2023-06-30 03:25:00,SystemResetWarning,0832.7,5.00,000.00,029.2,027.6,000.0,037.8,030.8,32.7,0000.0,0011.76,0005.53,0004.26
2023-06-30 03:26:00,SystemResetWarning,0832.7,5.00,000.00,029.3,027.8,000.0,037.8,030.9,32.6,0000.0,0011.09,0005.55,0004.26
2023-06-30 03:27:00,SystemResetWarning,0832.7,5.00,000.00,029.3,027.9,000.0,037.8,030.9,32.6,0000.0,0011.05,0005.54,0004.26
2023-06-30 03:28:00,SystemResetWarning,0832.7,5.00,000.00,029.3,028.0,000.0,037.8,031.0,32.6,0000.0,0011.15,0005.53,0004.25
2023-06-30 03:29:00,SystemResetWarning,0832.7,5.01,000.00,029.3,028.1,000.0,037.8,031.0,32.5,0000.0,0012.17,0005.51,0004.24
2023-06-30 03:30:00,SystemResetWarning,0832.7,5.00,000.00,029.4,028.2,000.0,037.9,031.0,32.5,0000.0,0012.41,0005.55,0004.24
2023-06-30 03:31:00,SystemResetWarning,0832.7,5.00,000.00,029.4,028.3,000.0,037.9,031.1,32.5,0000.0,0012.72,0005.61,0004.25
2023-06-30 03:32:00,SystemResetWarning,0832.7,5.00,000.00,029.4,028.3,000.0,037.9,031.1,32.3,0000.0,0012.20,0005.59,0004.25
2023-06-30 03:33:00,SystemResetWarning,0832.6,5.00,000.00,029.5,028.4,000.0,037.9,031.1,32.2,-000.3,0012.13,0005.55,0004.24
2023-06-30 03:34:00,SystemResetWarning,0832.6,5.00,000.00,029.5,028.4,000.0,038.0,031.2,32.2,-000.5,0012.38,0005.51,0004.24
2023-06-30 03:35:00,SystemResetWarning,0832.6,5.00,000.00,029.5,028.5,000.0,038.0,031.2,32.1,-000.7,0013.31,0005.48,0004.23
2023-06-30 03:36:00,SystemResetWarning,0832.6,4.99,000.00,029.6,028.2,000.0,038.0,031.2,32.0,-000.1,0013.46,0005.53,0004.22
2023-06-30 03:37:00,SystemResetWarning,0832.5,5.00,000.00,029.5,026.3,000.0,037.9,031.0,32.0,-000.3,0014.04,0005.54,0004.21
2023-06-30 03:38:00,SystemResetWarning,0832.5,5.00,000.00,029.4,025.3,000.0,037.8,030.8,32.1,0000.0,0014.27,0005.57,0004.21
2023-06-30 03:39:00,SystemResetWarning,0832.5,5.01,000.00,029.3,025.3,000.0,037.8,030.4,32.3,0000.0,0014.40,0005.54,0004.20
2023-06-30 03:40:00,SystemResetWarning,0832.6,5.01,000.00,029.2,025.6,000.0,037.8,030.4,32.7,0000.0,0013.38,0005.60,0004.21
2023-06-30 03:41:00,SystemResetWarning,0832.5,5.00,000.00,029.2,026.0,000.0,037.8,030.5,32.9,0000.0,0013.21,0005.61,0004.22
2023-06-30 03:42:00,SystemResetWarning,0832.5,5.00,000.00,029.2,026.4,000.0,037.8,030.6,33.0,0000.0,0013.14,0005.54,0004.20
2023-06-30 03:43:00,SystemResetWarning,0832.5,5.00,000.00,029.2,026.8,000.0,037.8,030.7,33.2,0000.0,0013.16,0005.55,0004.19
2023-06-30 03:44:00,SystemResetWarning,0832.5,4.98,000.00,029.2,027.1,000.0,037.8,030.7,33.2,0000.0,0013.23,0005.57,0004.19
2023-06-30 03:45:00,SystemResetWarning,0832.5,4.99,000.00,029.2,027.3,000.0,037.8,030.8,33.2,0000.0,0013.30,0005.61,0004.17
2023-06-30 03:46:00,SystemResetWarning,0832.5,5.01,000.00,029.2,027.5,000.0,037.8,030.8,33.3,0000.0,0013.04,0005.63,0004.15
2023-06-30 03:47:00,SystemResetWarning,0832.5,5.01,000.00,029.3,027.7,000.0,037.8,030.9,33.2,0000.0,0012.81,0005.58,0004.15
2023-06-30 03:48:00,SystemResetWarning,0832.5,5.00,000.00,029.3,027.8,000.0,037.8,030.9,33.1,0000.0,0013.76,0005.57,0004.14
2023-06-30 03:49:00,SystemResetWarning,0832.6,4.99,000.00,029.3,028.0,000.0,037.8,030.9,33.2,0000.0,0013.56,0005.46,0004.12
2023-06-30 03:50:00,SystemResetWarning,0832.7,5.00,000.00,029.3,028.1,000.0,037.9,031.0,33.2,0000.0,0013.91,0005.42,0004.11
2023-06-30 03:51:00,SystemResetWarning,0832.7,5.00,000.00,029.4,028.1,000.0,037.9,031.0,33.3,0000.0,0014.26,0005.35,0004.08
2023-06-30 03:52:00,SystemResetWarning,0832.8,5.00,000.00,029.4,028.2,000.0,037.9,031.0,33.4,0000.0,0014.36,0005.31,0004.04
2023-06-30 03:53:00,SystemResetWarning,0833.0,5.00,000.00,029.4,028.3,000.0,037.9,031.1,33.3,0000.0,0014.49,0005.33,0004.03
2023-06-30 03:54:00,SystemResetWarning,0833.0,5.01,000.00,029.4,028.3,000.0,037.9,031.1,33.2,0000.0,0015.25,0005.30,0004.02
2023-06-30 03:55:00,SystemResetWarning,0833.2,5.01,000.00,029.5,028.4,000.0,037.9,031.1,33.2,0000.0,0015.40,0005.25,0003.99
2023-06-30 03:56:00,SystemResetWarning,0833.0,5.01,000.00,029.5,028.4,000.0,038.0,031.2,33.2,0000.0,0015.16,0005.20,0003.99
2023-06-30 03:57:00,SystemResetWarning,0833.1,4.98,000.00,029.5,028.5,000.0,038.0,031.2,33.0,0000.0,0014.50,0005.19,0003.98
2023-06-30 03:58:00,SystemResetWarning,0833.2,4.99,000.00,029.6,028.0,000.0,038.0,031.2,33.0,0000.0,0014.28,0005.19,0003.95
2023-06-30 03:59:00,SystemResetWarning,0833.2,5.00,000.00,029.5,026.1,000.0,037.9,030.9,33.1,0000.0,0013.56,0005.15,0003.94
